05.05.2024;22:00;16
05.05.2024;21:00;12
05.05.2024;20:00;13
05.05.2024;19:00;5
05.05.2024;18:00;7
05.05.2024;17:00;8
05.05.2024;16:00;6
05.05.2024;15:00;8
05.05.2024;14:00;8
05.05.2024;13:00;5
05.05.2024;12:00;10
05.05.2024;11:00;13
05.05.2024;10:00;14
05.05.2024;09:00;9
05.05.2024;08:00;9
05.05.2024;07:00;10
05.05.2024;06:00;12
05.05.2024;05:00;13
05.05.2024;04:00;17
05.05.2024;03:00;20
05.05.2024;02:00;25
05.05.2024;01:00;31
05.05.2024;00:00;31
04.05.2024;23:00;27
04.05.2024;22:00;26
04.05.2024;21:00;20
04.05.2024;20:00;20
04.05.2024;19:00;17
04.05.2024;18:00;12
04.05.2024;17:00;11
04.05.2024;16:00;9
04.05.2024;15:00;8
04.05.2024;14:00;9
04.05.2024;13:00;6
04.05.2024;12:00;10
04.05.2024;11:00;9
04.05.2024;10:00;10
04.05.2024;09:00;11
04.05.2024;08:00;9
04.05.2024;07:00;18
04.05.2024;06:00;12
04.05.2024;05:00;9
04.05.2024;04:00;9
04.05.2024;03:00;10
04.05.2024;02:00;10
04.05.2024;01:00;13
04.05.2024;00:00;14
03.05.2024;23:00;14
